| time (UTC) | temp C | wind direction | speed KPH | gust KPH | rain 1hr cm | rain 24hr cm | rain mn cm | humidity % | barometer mb |
| 20260506031556 | 25 | 0 | 0.0 | 3.2 | 0.00 | 0.00 | 0.00 | 87 | 1010.0 |
| 20260506030054 | 25 | 0 | 0.0 | 6.4 | 0.00 | 0.00 | 0.00 | 88 | 1009.9 |
| 20260506024608 | 25 | 238 | 0.0 | 6.4 | 0.00 | 0.00 | 0.00 | 88 | 1009.5 |
| 20260506023057 | 25 | 0 | 0.0 | 4.8 | 0.00 | 0.00 | 0.00 | 87 | 1009.3 |
| 20260506021553 | 25 | 0 | 0.0 | 3.2 | 0.00 | 0.00 | 0.00 | 87 | 1009.1 |
| 20260506020117 | 25 | 0 | 0.0 | 6.4 | 0.00 | 0.00 | 0.00 | 87 | 1009.0 |
| 20260506014554 | 25 | 0 | 1.6 | 11.3 | 0.00 | 0.00 | 0.00 | 87 | 1008.8 |
| 20260506013051 | 25 | 234 | 0.0 | 3.2 | 0.00 | 0.00 | 0.00 | 87 | 1008.6 |
| 20260506011552 | 25 | 244 | 0.0 | 4.8 | 0.00 | 0.00 | 0.00 | 86 | 1008.6 |
| 20260506010053 | 25 | 186 | 0.0 | 8.0 | 0.00 | 0.00 | 0.00 | 86 | 1008.6 |
| 20260506004550 | 25 | 0 | 0.0 | 6.4 | 0.00 | 0.00 | 0.00 | 86 | 1008.3 |
| 20260506003053 | 25 | 213 | 0.0 | 12.9 | 0.00 | 0.00 | 0.00 | 86 | 1008.2 |
| 20260506001602 | 25 | 188 | 0.0 | 6.4 | 0.00 | 0.00 | 0.00 | 85 | 1008.2 |
| 20260506000113 | 26 | 282 | 0.0 | 4.8 | 0.00 | 0.00 | 0.00 | 85 | 1008.0 |
| 20260505234552 | 26 | 0 | 1.6 | 11.3 | 0.00 | 0.00 | 0.00 | 85 | 1008.2 |
| 20260505233053 | 26 | 226 | 0.0 | 8.0 | 0.00 | 0.00 | 0.00 | 84 | 1008.3 |
| 20260505231556 | 26 | 290 | 1.6 | 9.7 | 0.00 | 0.00 | 0.00 | 84 | 1008.3 |
| 20260505230052 | 26 | 0 | 0.0 | 11.3 | 0.00 | 0.00 | 0.00 | 84 | 1008.3 |
| 20260505224552 | 26 | 0 | 3.2 | 17.7 | 0.00 | 0.00 | 0.00 | 84 | 1008.2 |
| 20260505223053 | 26 | 0 | 0.0 | 12.9 | 0.00 | 0.00 | 0.00 | 83 | 1008.3 |
| 20260505221557 | 26 | 184 | 1.6 | 8.0 | 0.00 | 0.00 | 0.00 | 83 | 1008.3 |
| 20260505220106 | 26 | 252 | 3.2 | 12.9 | 0.00 | 0.00 | 0.00 | 83 | 1008.4 |
| 20260505214601 | 26 | 184 | 1.6 | 22.5 | 0.00 | 0.00 | 0.00 | 83 | 1008.5 |
| 20260505213050 | 27 | 231 | 1.6 | 14.5 | 0.00 | 0.00 | 0.00 | 82 | 1008.6 |
| 20260505211626 | 27 | 0 | 1.6 | 16.1 | 0.00 | 0.00 | 0.00 | 82 | 1008.8 |
| 20260505210050 | 27 | 237 | 1.6 | 11.3 | 0.00 | 0.00 | 0.00 | 82 | 1009.0 |
| 20260505204602 | 27 | 250 | 1.6 | 9.7 | 0.00 | 0.00 | 0.00 | 82 | 1009.1 |
| 20260505203056 | 27 | 248 | 3.2 | 12.9 | 0.00 | 0.00 | 0.00 | 81 | 1009.2 |
| 20260505201552 | 27 | 209 | 3.2 | 11.3 | 0.00 | 0.00 | 0.00 | 81 | 1009.5 |
| 20260505200054 | 27 | 244 | 1.6 | 8.0 | 0.00 | 0.00 | 0.00 | 81 | 1009.6 |
| 20260505194549 | 27 | 0 | 0.0 | 8.0 | 0.00 | 0.00 | 0.00 | 82 | 1009.8 |
| 20260505193055 | 27 | 275 | 0.0 | 9.7 | 0.00 | 0.00 | 0.00 | 83 | 1010.0 |
| 20260505191604 | 26 | 0 | 0.0 | 14.5 | 0.00 | 0.00 | 0.00 | 84 | 1010.1 |
| 20260505190049 | 26 | 239 | 3.2 | 14.5 | 0.00 | 0.00 | 0.00 | 84 | 1010.1 |
| 20260505184554 | 26 | 146 | 1.6 | 17.7 | 0.00 | 0.00 | 0.00 | 84 | 1010.1 |
| 20260505183054 | 26 | 215 | 3.2 | 14.5 | 0.00 | 0.00 | 0.00 | 84 | 1010.3 |
| 20260505181639 | 25 | 191 | 1.6 | 9.7 | 0.00 | 0.00 | 0.00 | 85 | 1010.3 |
| 20260505180104 | 25 | 0 | 0.0 | 12.9 | 0.00 | 0.00 | 0.00 | 86 | 1010.5 |
| 20260505174553 | 25 | 238 | 4.8 | 19.3 | 0.00 | 0.00 | 0.00 | 84 | 1010.7 |
| 20260505173051 | 25 | 0 | 0.0 | 16.1 | 0.00 | 0.00 | 0.00 | 84 | 1010.7 |
| 20260505171600 | 25 | 222 | 1.6 | 11.3 | 0.00 | 0.00 | 0.00 | 84 | 1010.7 |
| 20260505170054 | 25 | 0 | 1.6 | 12.9 | 0.00 | 0.00 | 0.00 | 84 | 1010.7 |
| 20260505164551 | 25 | 209 | 0.0 | 8.0 | 0.00 | 0.00 | 0.00 | 85 | 1010.7 |
| 20260505163052 | 25 | 0 | 0.0 | 14.5 | 0.00 | 0.00 | 0.00 | 84 | 1010.7 |
| 20260505161551 | 25 | 257 | 3.2 | 12.9 | 0.00 | 0.00 | 0.00 | 84 | 1010.7 |
| 20260505160105 | 25 | 207 | 1.6 | 8.0 | 0.00 | 0.00 | 0.00 | 85 | 1010.6 |
| 20260505153059 | 23 | 0 | 0.0 | 11.3 | 0.00 | 0.00 | 0.00 | 88 | 1010.7 |
| 20260505151603 | 23 | 0 | 1.6 | 14.5 | 0.00 | 0.00 | 0.00 | 87 | 1010.5 |
| 20260505124554 | 23 | 215 | 0.0 | 8.0 | 0.00 | 0.00 | 0.00 | 86 | 1010.1 |
| 20260505123059 | 23 | 232 | 1.6 | 11.3 | 0.00 | 0.00 | 0.00 | 86 | 1009.9 |
| 20260505121557 | 23 | 0 | 0.0 | 11.3 | 0.00 | 0.00 | 0.00 | 86 | 1009.7 |
| 20260505120111 | 23 | 199 | 0.0 | 4.8 | 0.00 | 0.00 | 0.00 | 86 | 1010.1 |
| 20260505114554 | 23 | 0 | 0.0 | 9.7 | 0.00 | 0.00 | 0.00 | 86 | 1009.6 |
| 20260505113053 | 22 | 232 | 1.6 | 8.0 | 0.00 | 0.00 | 0.00 | 86 | 1009.7 |
| 20260505111556 | 22 | 202 | 0.0 | 8.0 | 0.00 | 0.00 | 0.00 | 86 | 1009.7 |
| 20260505110110 | 22 | 0 | 1.6 | 11.3 | 0.00 | 0.00 | 0.00 | 86 | 1009.8 |
| 20260505101551 | 22 | 0 | 0.0 | 4.8 | 0.00 | 0.00 | 0.00 | 86 | 1009.8 |
| 20260505100053 | 22 | 0 | 0.0 | 6.4 | 0.00 | 0.00 | 0.00 | 86 | 1009.7 |
| 20260505094550 | 22 | 0 | 0.0 | 6.4 | 0.00 | 0.00 | 0.00 | 86 | 1009.8 |
| 20260505093051 | 22 | 0 | 0.0 | 6.4 | 0.00 | 0.00 | 0.00 | 85 | 1009.9 |
| 20260505091555 | 22 | 0 | 1.6 | 8.0 | 0.00 | 0.00 | 0.00 | 85 | 1009.9 |
| 20260505090051 | 22 | 240 | 1.6 | 8.0 | 0.00 | 0.00 | 0.00 | 85 | 1010.1 |
| 20260505084602 | 22 | 0 | 1.6 | 6.4 | 0.00 | 0.00 | 0.00 | 85 | 1009.9 |
| 20260505083105 | 22 | 244 | 1.6 | 9.7 | 0.00 | 0.00 | 0.00 | 85 | 1010.0 |
| 20260505081554 | 22 | 0 | 1.6 | 11.3 | 0.00 | 0.00 | 0.00 | 85 | 1010.1 |
| 20260505080100 | 22 | 0 | 3.2 | 12.9 | 0.00 | 0.00 | 0.00 | 85 | 1010.2 |
| 20260505074554 | 22 | 264 | 1.6 | 9.7 | 0.00 | 0.00 | 0.00 | 85 | 1010.4 |
| 20260505073101 | 22 | 240 | 0.0 | 8.0 | 0.00 | 0.00 | 0.00 | 85 | 1010.3 |
| 20260505071555 | 22 | 246 | 1.6 | 11.3 | 0.00 | 0.00 | 0.00 | 85 | 1010.4 |
| 20260505070100 | 22 | 208 | 1.6 | 14.5 | 0.00 | 0.00 | 0.00 | 84 | 1010.7 |
| 20260505064636 | 22 | 0 | 1.6 | 14.5 | 0.00 | 0.00 | 0.00 | 84 | 1010.8 |
| 20260505063053 | 22 | 243 | 0.0 | 8.0 | 0.00 | 0.00 | 0.00 | 84 | 1011.1 |
| 20260505061555 | 22 | 0 | 1.6 | 8.0 | 0.00 | 0.00 | 0.00 | 84 | 1011.3 |
| 20260505060058 | 22 | 236 | 0.0 | 11.3 | 0.00 | 0.00 | 0.00 | 84 | 1011.3 |
| 20260505054558 | 22 | 252 | 1.6 | 8.0 | 0.00 | 0.00 | 0.00 | 84 | 1011.4 |
| 20260505053057 | 22 | 0 | 0.0 | 6.4 | 0.00 | 0.00 | 0.00 | 84 | 1011.5 |
| 20260505051555 | 22 | 0 | 0.0 | 11.3 | 0.00 | 0.00 | 0.00 | 84 | 1011.5 |
| 20260505050110 | 22 | 0 | 0.0 | 8.0 | 0.00 | 0.00 | 0.00 | 83 | 1011.6 |
| 20260505041603 | 22 | 0 | 0.0 | 6.4 | 0.00 | 0.00 | 0.00 | 83 | 1012.0 |
| 20260505040104 | 22 | 0 | 0.0 | 9.7 | 0.00 | 0.00 | 0.00 | 83 | 1011.9 |
| 20260505034611 | 22 | 0 | 0.0 | 9.7 | 0.00 | 0.00 | 0.00 | 82 | 1012.2 |
| 20260505033055 | 22 | 239 | 0.0 | 6.4 | 0.00 | 0.00 | 0.00 | 82 | 1012.0 |